SCP
0 0 0 0 0 0 0 0 0 0 0 0 0 0 0 -0 -0 -0 -0 0 0 0 0 0 0 0 0 0 0 0 0 0 0 0 0 0 0 0 0 0 0 0 0 0
0 0 0 0 0 0 0 0 0 0 0 0 0 0 0 -0 -0 -0 -0 -0 0 0 0 0 0 0 0 0 0 0 0 0 0 0 0 0 0 0 0 0 0 0 0 0
0 0 0 0 0 0 0 0 0 0 0 0 0 0 -0 -0 -0 -0 -0 -0 0 0 0 0 0 0 0 0 0 0 0 0 0 0 0 0 0 0 0 0 0 0 0 0
0 0 0 0 0 0 0 0 0 0 0 0 0 0 -0 -0 -0 -0 -0 -0 0 0 0 0 0 0 0 0 0 0 0 0 0 0 0 0 0 0 0 0 0 0 0 0
0 0 0 0 0 0 0 0 0 0 0 0 0 0 -0 -0 -0 -0 0 0 0 0 0 0 0 0 0 0 0 0 0 0 0 0 0 0 0 0 0 0 0 0 0 0
0 0 0 0 0 0 0 0 0 0 0 0 0 0 -0 -0 -0 -0 0 0 0 0 0 0 0 0 0 0 0 0 0 0 0 0 0 0 0 0 0 0 0 0 0 0
0 0 0 0 0 0 0 0 0 0 0 0 0 -0 -0 -0 -0 0 0 0 0 0 0 0 0 0 0 0 0 0 0 0 0 0 0 0 0 0 0 0 0 0 0 0
0 0 0 -0 -0 -0 0 0 0 0 -0 0 0 0 0 0 0 0 0 0 0 0 0 0 0 0 0 0 0 0 0 0 0 0 0 0 0 0 0 0 0 0 0 0
0 0 0 0 0 0 0 0 0 0 0 -0 0 -0 0 0 0 0 0 0 0 0 0 0 0 0 0 0 0 0 0 0 0 0 0 0 0 0 0 0 0 0 0 0
0 0 0 0 0 -0 0 0 0 0 0 0 0 -0 0 0 0 0 0 0 0 0 0 0 0 0 0 0 0 0 0 0 0 0 0 0 0 0 0 0 0 0 0 0
0 0 0 0 0 0 0 0 0 0 0 0 -0 0 0 0 0 0 0 0 0 0 0 0 0 0 0 0 0 0 0 0 0 0 0 0 0 0 0 0 0 0 0 0
0 0 0 0 0 -0 0 0 0 0 0 0 -0 0 0 0 0 0 0 0 0 0 0 0 0 0 0 0 0 0 0 0 0 0 0 0 0 0 0 0 0 0 0 0
0 0 0 0 0 0 0 0 0 -0 0 0 0 0 0 0 0 0 0 0 0 0 0 0 0 0 0 0 0 0 0 0 0 0 0 0 0 0 0 0 0 0 0 0
0 0 0 0 0 0 0 0 0 -0 -0 0 0 0 0 0 0 0 0 0 0 0 0 0 0 0 0 0 0 0 0 0 0 0 0 0 0 0 0 0 0 0 0 0
0 0 0 0 0 0 0 0 0 0 -0 0 0 0 0 0 0 0 0 0 0 0 0 0 0 0 0 0 0 0 0 0 0 0 0 0 0 0 0 0 0 0 0 0
0 0 0 0 0 0 0 0 0 0 -0 0 0 0 0 0 0 0 0 0 0 0 0 0 0 0 0 0 0 0 0 0 0 0 0 0 0 0 0 0 0 0 0 0
0 0 0 0 0 0 0 0 0 0 -0 0 0 0 0 0 0 0 0 0 0 0 0 0 0 0 0 0 0 0 0 0 0 0 0 0 0 0 0 0 0 0 0 0
0 0 0 0 0 0 0 0 0 0 -0 -0 0 0 0 0 0 0 0 0 0 0 0 0 0 0 0 0 0 0 0 0 0 0 0 0 0 0 0 0 0 0 0 0
0 0 0 0 0 0 0 0 0 0 0 0 0 0 0 0 0 0 0 0 0 0 0 0 0 0 0 0 0 0 0 0 0 0 0 0 0 0 0 0 0 0 0 0
0 0 0 0 0 0 0 0 0 0 0 0 0 0 0 0 0 0 0 0 0 0 0 0 0 0 0 0 0 0 0 0 0 0 0 0 0 0 0 0 0 0 0 0
0 0 0 0 0 0 0 0 0 0 0 0 0 0 0 0 0 0 0 0 0 0 0 0 0 0 0 0 0 0 0 0 0 0 0 0 0 0 0 0 0 0 0 0
0 0 0 0 0 0 0 0 0 0 0 0 0 0 0 0 0 0 0 0 0 0 0 0 0 0 0 0 0 0 0 0 0 0 0 0 0 0 0 0 0 0 0 0
0 0 0 0 0 0 0 0 0 0 0 0 0 0 0 0 0 0 0 0 0 0 0 0 0 0 0 0 0 0 0 0 0 0 0 0 0 0 0 0 0 0 0 0
0 0 0 0 0 0 0 0 0 0 0 0 0 0 0 0 0 0 0 0 0 0 0 0 0 0 0 0 0 0 0 0 0 0 0 0 0 0 0 0 0 0 0 0
0 0 0 0 0 0 0 0 0 0 0 0 0 0 0 0 0 0 0 0 0 0 0 0 0 0 0 0 0 0 0 0 0 0 0 0 0 0 0 0 0 0 0 0
0 0 0 0 0 0 0 0 0 0 0 0 0 0 0 0 0 0 0 0 0 0 0 0 0 0 0 0 0 0 0 0 0 0 0 0 0 0 0 0 0 0 0 0
0 0 0 0 0 0 0 0 0 0 0 0 0 0 0 0 0 0 0 0 0 0 0 0 0 0 0 0 0 0 0 0 0 0 0 0 0 0 0 0 0 0 0 0
Wind_Speed_500mb
61 58 55 52 54 58 58 46 9 39 57 10 5 20 15 33 28 26 13 20 33 28 43 45 28 43 39 66 50 40 7 12 17 8 1 14 16 23 11 11 11 5 6 10
60 55 50 48 50 59 60 36 13 56 64 13 16 11 32 25 20 20 12 15 35 34 40 24 26 35 21 64 43 42 19 14 18 5 10 7 33 31 31 10 7 12 10 10
56 53 45 42 41 53 48 22 8 9 32 12 18 15 16 28 35 40 31 28 37 45 48 19 39 33 27 61 44 41 18 14 11 29 34 19 19 28 26 10 7 10 23 15
52 47 43 37 40 60 44 14 9 12 12 16 17 18 11 39 21 25 31 21 49 54 33 26 36 26 33 43 43 18 12 10 9 11 31 32 50 53 45 39 48 23 41 38
52 46 41 34 44 56 43 17 9 9 4 16 25 28 23 33 33 15 21 41 53 52 31 20 57 45 46 61 29 32 10 9 10 11 12 33 41 41 46 57 57 32 12 22
52 46 38 34 43 58 27 25 14 8 12 9 12 11 21 30 30 26 45 40 52 58 59 39 41 34 21 43 48 30 14 11 9 4 7 17 2 54 54 50 42 49 26 27
52 44 34 29 34 50 31 24 18 6 6 18 18 13 12 35 43 38 34 52 47 36 60 70 43 29 19 51 30 30 17 10 7 6 6 5 13 41 40 47 46 49 38 9
46 37 30 29 27 24 29 31 20 12 6 8 10 19 18 23 33 38 21 56 59 99 81 25 14 5 12 10 9 18 17 11 9 12 12 7 7 11 41 33 34 41 50 30
39 32 27 23 18 13 17 27 35 11 3 8 2 7 15 12 19 4 9 17 84 86 26 7 10 9 11 13 10 12 10 13 8 8 12 21 2 18 50 13 13 29 37 34
33 28 24 20 15 12 14 15 31 17 7 12 10 10 10 14 10 6 6 6 10 22 15 11 9 6 14 18 30 27 16 16 24 11 9 13 12 15 54 17 14 40 65 55
26 21 18 14 11 8 6 10 24 21 13 14 12 12 11 9 19 14 25 19 1 4 8 6 6 7 11 9 16 33 18 23 16 6 5 21 24 29 31 13 8 25 31 46
22 18 14 11 8 5 7 10 12 15 10 9 13 9 3 10 13 23 52 8 14 15 8 5 8 7 8 13 18 18 7 16 18 24 12 8 62 45 31 39 33 29 40 37
20 17 13 11 7 3 7 13 15 9 2 3 12 12 9 6 14 45 12 17 31 9 10 10 6 10 7 8 7 24 4 9 10 10 10 16 52 24 40 38 47 46 40 43
22 20 19 15 10 10 9 12 5 4 2 4 3 29 10 4 20 49 33 7 23 10 9 5 6 8 2 7 11 9 8 12 13 2 3 14 37 43 61 39 40 46 40 37
22 19 18 19 21 19 20 20 18 5 2 3 9 8 41 11 19 32 31 10 9 3 6 8 5 4 8 2 6 5 6 11 16 10 33 21 43 70 51 54 51 49 51 47
20 14 7 5 7 8 8 5 18 11 8 4 4 12 25 24 33 32 21 15 8 10 10 5 7 4 5 6 6 9 22 13 8 2 46 28 41 63 57 56 50 48 45 46
25 23 22 19 7 5 8 9 13 8 4 4 3 3 18 33 20 20 24 17 11 10 10 5 3 5 9 5 6 15 31 21 22 29 32 30 45 36 57 57 55 51 48 47
18 17 18 20 18 15 15 20 27 7 7 6 5 4 7 37 18 7 14 11 11 20 8 6 4 5 6 8 13 21 25 11 17 14 1 18 36 52 57 56 58 56 55 52
11 12 9 9 8 9 15 15 16 23 15 5 7 8 6 28 19 15 13 11 6 9 5 4 5 7 9 10 18 21 28 20 21 17 15 30 44 59 59 60 59 60 58 53
7 7 8 8 12 15 14 9 9 12 19 16 6 18 7 18 17 8 4 11 5 4 5 8 7 6 20 22 18 18 19 17 13 16 26 35 49 56 58 55 55 54 56 55
8 10 9 11 15 13 11 12 13 14 7 19 14 15 6 27 7 6 14 3 3 5 3 2 5 5 7 21 22 21 16 14 17 19 23 32 46 53 54 54 55 54 52 51
12 11 10 14 16 12 12 3 7 11 5 15 8 13 11 11 12 4 10 4 2 6 8 1 5 5 15 19 22 24 19 18 22 26 31 39 45 46 50 51 48 45 42 41
15 9 9 17 17 19 12 12 7 6 16 21 18 6 10 11 15 5 4 7 5 6 5 5 5 10 19 21 18 19 20 21 27 34 37 38 42 41 39 39 38 34 32 33
12 14 15 8 10 7 5 5 5 10 15 32 27 13 5 8 7 3 7 1 2 4 5 6 4 16 19 19 19 15 21 22 27 31 32 37 38 39 37 35 34 31 29 28
14 13 10 8 3 3 8 11 14 16 29 22 11 10 4 6 7 5 1 7 8 8 6 4 12 16 15 18 19 19 18 19 22 25 26 28 30 30 32 30 28 27 26 26
13 20 6 16 4 8 18 24 15 36 33 12 6 5 6 8 4 9 7 5 7 4 4 4 7 10 13 14 16 17 16 16 17 18 19 21 22 23 24 24 22 22 21 20
12 12 18 9 3 6 15 23 35 37 22 5 4 10 3 4 6 7 9 5 3 5 6 4 6 9 12 14 15 15 15 14 14 15 15 15 15 15 14 14 13 12 12 11
Wind_Direction_500mb
155 159 157 155 154 155 158 156 163 178 179 155 203 204 207 221 238 233 265 303 180 162 182 180 171 180 181 183 178 170 104 107 148 158 342 179 186 172 168 169 208 237 125 260
159 160 158 156 160 163 158 150 145 165 175 192 187 225 226 236 209 221 215 271 209 172 184 170 189 174 155 177 177 161 157 143 127 105 348 210 204 178 198 102 78 199 145 260
167 164 160 163 167 170 156 148 149 162 210 221 193 188 219 227 235 236 228 242 250 164 182 188 191 160 173 176 177 137 113 158 162 192 200 122 188 191 191 170 154 157 221 179
166 164 161 163 168 168 169 163 197 181 180 202 206 202 229 226 236 212 190 249 224 171 166 166 177 136 159 184 148 144 124 132 178 164 160 167 179 183 183 198 218 188 229 225
165 160 160 163 166 173 185 155 170 170 162 133 199 223 219 235 218 217 233 220 190 185 154 177 158 158 163 178 170 165 159 136 115 2 162 165 184 184 191 201 214 224 242 270
158 156 154 160 169 178 184 205 195 169 166 171 189 213 219 227 198 223 232 211 205 185 182 173 166 134 131 168 172 171 140 128 119 156 79 88 326 199 199 209 206 216 210 226
155 151 149 158 171 184 194 199 174 167 233 203 207 210 233 229 206 214 216 218 210 175 135 123 107 82 112 155 164 170 145 96 78 138 114 190 251 179 204 210 208 217 233 203
147 146 147 151 159 184 210 212 186 183 259 217 248 250 259 268 218 216 235 213 199 147 124 103 99 40 78 3 23 147 137 100 106 149 209 284 206 210 190 182 222 218 224 226
142 145 143 143 151 156 181 197 202 201 271 218 246 255 227 241 193 227 298 136 151 145 135 118 132 154 124 149 120 10 119 123 111 149 158 210 216 173 181 100 263 204 209 214
142 147 144 139 137 153 175 202 208 198 228 241 234 227 252 159 148 151 142 139 104 150 154 134 146 115 151 156 161 167 156 177 190 176 208 262 201 165 131 147 234 196 205 209
138 145 153 159 144 143 183 220 209 204 208 244 254 256 260 256 168 168 161 128 6 4 102 120 139 131 196 108 154 169 166 164 188 128 152 253 168 146 156 193 162 173 175 199
129 133 141 160 172 211 236 231 199 198 218 264 254 272 256 242 223 141 176 129 151 167 139 163 130 132 144 144 156 181 157 196 171 190 192 211 170 170 180 176 165 172 169 174
125 120 118 130 145 231 189 130 139 159 227 314 32 331 290 312 186 169 176 168 179 183 165 152 142 123 139 144 204 160 209 152 146 108 205 167 184 170 174 178 183 170 167 163
122 111 96 115 118 134 218 254 25 20 251 276 261 17 28 323 178 189 177 207 205 162 185 103 112 108 180 181 151 134 189 123 148 103 11 81 182 194 197 183 178 174 169 169
111 114 122 114 111 107 78 65 56 41 328 332 311 339 24 89 143 188 196 176 134 16 63 43 83 91 119 343 88 123 186 166 180 215 175 173 196 196 192 187 179 179 172 165
100 92 91 154 188 227 313 314 30 44 41 347 350 345 5 48 113 152 168 178 135 58 82 77 76 67 65 97 82 8 24 22 58 357 185 185 193 193 188 183 175 170 170 171
92 84 72 68 107 203 82 48 347 23 44 6 327 348 3 11 40 84 84 121 77 78 78 52 75 34 41 74 107 4 19 46 95 115 127 123 162 171 183 182 171 168 162 162
95 79 72 72 81 91 57 36 31 43 63 53 349 340 38 13 12 52 42 65 58 39 75 57 40 39 44 79 36 12 7 40 80 55 51 190 172 169 167 168 162 158 155 155
103 94 74 29 19 27 0 355 19 40 51 81 44 358 357 353 18 30 43 56 65 48 56 51 16 7 51 19 357 7 5 6 339 52 131 150 164 161 160 162 160 160 151 154
93 45 35 43 358 350 347 355 3 35 28 41 44 343 357 357 348 33 35 41 44 68 31 356 60 78 81 28 14 3 359 13 61 115 94 137 143 152 151 153 157 156 152 151
28 34 36 14 7 13 23 31 34 346 46 11 346 16 326 12 12 23 17 61 341 95 41 345 103 84 52 3 15 20 31 53 88 105 119 147 149 143 143 141 145 146 147 148
71 71 32 10 26 26 68 1 352 35 23 341 330 329 357 339 359 17 3 56 330 77 328 137 88 73 8 10 19 31 50 77 100 116 124 133 136 135 138 135 137 141 142 140
50 34 45 11 349 39 42 354 359 20 349 0 337 325 355 350 9 65 36 43 44 283 23 64 40 44 8 15 25 40 60 82 99 109 120 128 129 129 132 131 129 130 137 140
54 34 27 53 2 41 18 332 328 319 311 321 315 284 16 359 33 310 79 255 238 79 59 51 41 5 3 15 31 45 55 72 91 101 109 117 124 127 128 130 133 138 141 143
61 42 48 48 295 325 340 332 312 323 321 328 312 280 331 1 58 24 82 32 63 39 48 39 5 359 12 26 33 42 50 63 80 94 105 112 118 124 127 129 133 137 142 152
57 49 70 349 322 5 1 355 335 345 346 330 286 310 50 42 8 42 29 19 40 32 28 8 3 19 33 41 44 47 52 61 72 85 98 109 119 125 131 138 146 160 168 169
53 52 31 44 6 341 337 347 343 352 351 21 343 44 344 297 41 46 16 48 5 343 342 5 53 59 53 51 52 53 54 59 69 79 87 94 110 123 139 147 155 171 185 201
Wind_Speed_850mb
61 58 55 52 54 58 58 46 9 39 57 10 5 20 15 33 28 26 13 20 33 28 43 45 28 43 39 66 50 40 7 12 17 8 1 14 16 23 11 11 11 5 6 10
60 55 50 48 50 59 60 36 13 56 64 13 16 11 32 25 20 20 12 15 35 34 40 24 26 35 21 64 43 42 19 14 18 5 10 7 33 31 31 10 7 12 10 10
56 53 45 42 41 53 48 22 8 9 32 12 18 15 16 28 35 40 31 28 37 45 48 19 39 33 27 61 44 41 18 14 11 29 34 19 19 28 26 10 7 10 23 15
52 47 43 37 40 60 44 14 9 12 12 16 17 18 11 39 21 25 31 21 49 54 33 26 36 26 33 43 43 18 12 10 9 11 31 32 50 53 45 39 48 23 41 38
52 46 41 34 44 56 43 17 9 9 4 16 25 28 23 33 33 15 21 41 53 52 31 20 57 45 46 61 29 32 10 9 10 11 12 33 41 41 46 57 57 32 12 22
52 46 38 34 43 58 27 25 14 8 12 9 12 11 21 30 30 26 45 40 52 58 59 39 41 34 21 43 48 30 14 11 9 4 7 17 2 54 54 50 42 49 26 27
52 44 34 29 34 50 31 24 18 6 6 18 18 13 12 35 43 38 34 52 47 36 60 70 43 29 19 51 30 30 17 10 7 6 6 5 13 41 40 47 46 49 38 9
46 37 30 29 27 24 29 31 20 12 6 8 10 19 18 23 33 38 21 56 59 99 81 25 14 5 12 10 9 18 17 11 9 12 12 7 7 11 41 33 34 41 50 30
39 32 27 23 18 13 17 27 35 11 3 8 2 7 15 12 19 4 9 17 84 86 26 7 10 9 11 13 10 12 10 13 8 8 12 21 2 18 50 13 13 29 37 34
33 28 24 20 15 12 14 15 31 17 7 12 10 10 10 14 10 6 6 6 10 22 15 11 9 6 14 18 30 27 16 16 24 11 9 13 12 15 54 17 14 40 65 55
26 21 18 14 11 8 6 10 24 21 13 14 12 12 11 9 19 14 25 19 1 4 8 6 6 7 11 9 16 33 18 23 16 6 5 21 24 29 31 13 8 25 31 46
22 18 14 11 8 5 7 10 12 15 10 9 13 9 3 10 13 23 52 8 14 15 8 5 8 7 8 13 18 18 7 16 18 24 12 8 62 45 31 39 33 29 40 37
20 17 13 11 7 3 7 13 15 9 2 3 12 12 9 6 14 45 12 17 31 9 10 10 6 10 7 8 7 24 4 9 10 10 10 16 52 24 40 38 47 46 40 43
22 20 19 15 10 10 9 12 5 4 2 4 3 29 10 4 20 49 33 7 23 10 9 5 6 8 2 7 11 9 8 12 13 2 3 14 37 43 61 39 40 46 40 37
22 19 18 19 21 19 20 20 18 5 2 3 9 8 41 11 19 32 31 10 9 3 6 8 5 4 8 2 6 5 6 11 16 10 33 21 43 70 51 54 51 49 51 47
20 14 7 5 7 8 8 5 18 11 8 4 4 12 25 24 33 32 21 15 8 10 10 5 7 4 5 6 6 9 22 13 8 2 46 28 41 63 57 56 50 48 45 46
25 23 22 19 7 5 8 9 13 8 4 4 3 3 18 33 20 20 24 17 11 10 10 5 3 5 9 5 6 15 31 21 22 29 32 30 45 36 57 57 55 51 48 47
18 17 18 20 18 15 15 20 27 7 7 6 5 4 7 37 18 7 14 11 11 20 8 6 4 5 6 8 13 21 25 11 17 14 1 18 36 52 57 56 58 56 55 52
11 12 9 9 8 9 15 15 16 23 15 5 7 8 6 28 19 15 13 11 6 9 5 4 5 7 9 10 18 21 28 20 21 17 15 30 44 59 59 60 59 60 58 53
7 7 8 8 12 15 14 9 9 12 19 16 6 18 7 18 17 8 4 11 5 4 5 8 7 6 20 22 18 18 19 17 13 16 26 35 49 56 58 55 55 54 56 55
8 10 9 11 15 13 11 12 13 14 7 19 14 15 6 27 7 6 14 3 3 5 3 2 5 5 7 21 22 21 16 14 17 19 23 32 46 53 54 54 55 54 52 51
12 11 10 14 16 12 12 3 7 11 5 15 8 13 11 11 12 4 10 4 2 6 8 1 5 5 15 19 22 24 19 18 22 26 31 39 45 46 50 51 48 45 42 41
15 9 9 17 17 19 12 12 7 6 16 21 18 6 10 11 15 5 4 7 5 6 5 5 5 10 19 21 18 19 20 21 27 34 37 38 42 41 39 39 38 34 32 33
12 14 15 8 10 7 5 5 5 10 15 32 27 13 5 8 7 3 7 1 2 4 5 6 4 16 19 19 19 15 21 22 27 31 32 37 38 39 37 35 34 31 29 28
14 13 10 8 3 3 8 11 14 16 29 22 11 10 4 6 7 5 1 7 8 8 6 4 12 16 15 18 19 19 18 19 22 25 26 28 30 30 32 30 28 27 26 26
13 20 6 16 4 8 18 24 15 36 33 12 6 5 6 8 4 9 7 5 7 4 4 4 7 10 13 14 16 17 16 16 17 18 19 21 22 23 24 24 22 22 21 20
12 12 18 9 3 6 15 23 35 37 22 5 4 10 3 4 6 7 9 5 3 5 6 4 6 9 12 14 15 15 15 14 14 15 15 15 15 15 14 14 13 12 12 11
Wind_Direction_850mb
155 159 157 155 154 155 158 156 163 178 179 155 203 204 207 221 238 233 265 303 180 162 182 180 171 180 181 183 178 170 104 107 148 158 342 179 186 172 168 169 208 237 125 260
159 160 158 156 160 163 158 150 145 165 175 192 187 225 226 236 209 221 215 271 209 172 184 170 189 174 155 177 177 161 157 143 127 105 348 210 204 178 198 102 78 199 145 260
167 164 160 163 167 170 156 148 149 162 210 221 193 188 219 227 235 236 228 242 250 164 182 188 191 160 173 176 177 137 113 158 162 192 200 122 188 191 191 170 154 157 221 179
166 164 161 163 168 168 169 163 197 181 180 202 206 202 229 226 236 212 190 249 224 171 166 166 177 136 159 184 148 144 124 132 178 164 160 167 179 183 183 198 218 188 229 225
165 160 160 163 166 173 185 155 170 170 162 133 199 223 219 235 218 217 233 220 190 185 154 177 158 158 163 178 170 165 159 136 115 2 162 165 184 184 191 201 214 224 242 270
158 156 154 160 169 178 184 205 195 169 166 171 189 213 219 227 198 223 232 211 205 185 182 173 166 134 131 168 172 171 140 128 119 156 79 88 326 199 199 209 206 216 210 226
155 151 149 158 171 184 194 199 174 167 233 203 207 210 233 229 206 214 216 218 210 175 135 123 107 82 112 155 164 170 145 96 78 138 114 190 251 179 204 210 208 217 233 203
147 146 147 151 159 184 210 212 186 183 259 217 248 250 259 268 218 216 235 213 199 147 124 103 99 40 78 3 23 147 137 100 106 149 209 284 206 210 190 182 222 218 224 226
142 145 143 143 151 156 181 197 202 201 271 218 246 255 227 241 193 227 298 136 151 145 135 118 132 154 124 149 120 10 119 123 111 149 158 210 216 173 181 100 263 204 209 214
142 147 144 139 137 153 175 202 208 198 228 241 234 227 252 159 148 151 142 139 104 150 154 134 146 115 151 156 161 167 156 177 190 176 208 262 201 165 131 147 234 196 205 209
138 145 153 159 144 143 183 220 209 204 208 244 254 256 260 256 168 168 161 128 6 4 102 120 139 131 196 108 154 169 166 164 188 128 152 253 168 146 156 193 162 173 175 199
129 133 141 160 172 211 236 231 199 198 218 264 254 272 256 242 223 141 176 129 151 167 139 163 130 132 144 144 156 181 157 196 171 190 192 211 170 170 180 176 165 172 169 174
125 120 118 130 145 231 189 130 139 159 227 314 32 331 290 312 186 169 176 168 179 183 165 152 142 123 139 144 204 160 209 152 146 108 205 167 184 170 174 178 183 170 167 163
122 111 96 115 118 134 218 254 25 20 251 276 261 17 28 323 178 189 177 207 205 162 185 103 112 108 180 181 151 134 189 123 148 103 11 81 182 194 197 183 178 174 169 169
111 114 122 114 111 107 78 65 56 41 328 332 311 339 24 89 143 188 196 176 134 16 63 43 83 91 119 343 88 123 186 166 180 215 175 173 196 196 192 187 179 179 172 165
100 92 91 154 188 227 313 314 30 44 41 347 350 345 5 48 113 152 168 178 135 58 82 77 76 67 65 97 82 8 24 22 58 357 185 185 193 193 188 183 175 170 170 171
92 84 72 68 107 203 82 48 347 23 44 6 327 348 3 11 40 84 84 121 77 78 78 52 75 34 41 74 107 4 19 46 95 115 127 123 162 171 183 182 171 168 162 162
95 79 72 72 81 91 57 36 31 43 63 53 349 340 38 13 12 52 42 65 58 39 75 57 40 39 44 79 36 12 7 40 80 55 51 190 172 169 167 168 162 158 155 155
103 94 74 29 19 27 0 355 19 40 51 81 44 358 357 353 18 30 43 56 65 48 56 51 16 7 51 19 357 7 5 6 339 52 131 150 164 161 160 162 160 160 151 154
93 45 35 43 358 350 347 355 3 35 28 41 44 343 357 357 348 33 35 41 44 68 31 356 60 78 81 28 14 3 359 13 61 115 94 137 143 152 151 153 157 156 152 151
28 34 36 14 7 13 23 31 34 346 46 11 346 16 326 12 12 23 17 61 341 95 41 345 103 84 52 3 15 20 31 53 88 105 119 147 149 143 143 141 145 146 147 148
71 71 32 10 26 26 68 1 352 35 23 341 330 329 357 339 359 17 3 56 330 77 328 137 88 73 8 10 19 31 50 77 100 116 124 133 136 135 138 135 137 141 142 140
50 34 45 11 349 39 42 354 359 20 349 0 337 325 355 350 9 65 36 43 44 283 23 64 40 44 8 15 25 40 60 82 99 109 120 128 129 129 132 131 129 130 137 140
54 34 27 53 2 41 18 332 328 319 311 321 315 284 16 359 33 310 79 255 238 79 59 51 41 5 3 15 31 45 55 72 91 101 109 117 124 127 128 130 133 138 141 143
61 42 48 48 295 325 340 332 312 323 321 328 312 280 331 1 58 24 82 32 63 39 48 39 5 359 12 26 33 42 50 63 80 94 105 112 118 124 127 129 133 137 142 152
57 49 70 349 322 5 1 355 335 345 346 330 286 310 50 42 8 42 29 19 40 32 28 8 3 19 33 41 44 47 52 61 72 85 98 109 119 125 131 138 146 160 168 169
53 52 31 44 6 341 337 347 343 352 351 21 343 44 344 297 41 46 16 48 5 343 342 5 53 59 53 51 52 53 54 59 69 79 87 94 110 123 139 147 155 171 185 201